AFL38 UHMM-PANC

Flight info

Callsign AFL38
Flight time N/A
Altitude 41000
Route MEBAR5D MEBAR B216 GINAN T454 BUSUL A827 BUMAT A828 GIRLO N222 VALDA/N0498F410 H222 SLEDD DCT WINOR KROTO5
Aircraft A359/H-SDE2E3GHIJ3J4J5LM1ORWXY/LB1D1

Departure

Time 2026-05-04 10:54
Airport Sokol Airport (UHMM)

Arrival

Time N/A
Airport Ted Stevens Anchorage International Airport (PANC)
Time Latitude Longitude Altitude Speed Heading
2026-05-04 10:35 59.91363 150.72527 577 ft 0 kts 182°
2026-05-04 10:47 59.91353 150.72525 581 ft 5 kts 187°
2026-05-04 10:49 59.91308 150.72159 577 ft 13 kts 273°
2026-05-04 10:49 59.91314 150.71922 579 ft 21 kts 273°
2026-05-04 10:50 59.91322 150.71613 573 ft 18 kts 273°
2026-05-04 10:51 59.91344 150.70785 575 ft 26 kts 273°
2026-05-04 10:52 59.91352 150.70424 569 ft 22 kts 265°
2026-05-04 10:52 59.91254 150.70197 569 ft 24 kts 210°
2026-05-04 10:52 59.91160 150.70157 570 ft 2 kts 140°
2026-05-04 10:54 59.90857 150.81700 3591 ft 231 kts 93°
2026-05-04 10:54 59.90764 150.84903 4567 ft 232 kts 94°
2026-05-04 10:56 59.90037 151.09780 10297 ft 289 kts 95°
2026-05-04 10:56 59.89910 151.13941 10635 ft 313 kts 95°
2026-05-04 10:56 59.89774 151.18424 11016 ft 335 kts 95°
2026-05-04 10:57 59.89632 151.23050 11608 ft 346 kts 95°
2026-05-04 10:57 59.89509 151.27878 12410 ft 353 kts 93°
2026-05-04 10:57 59.89801 151.32770 13169 ft 364 kts 76°
2026-05-04 10:57 59.90920 151.37377 13920 ft 375 kts 56°
2026-05-04 10:58 59.92717 151.40911 14614 ft 383 kts 38°
2026-05-04 10:58 59.94957 151.43889 15330 ft 390 kts 34°
2026-05-04 10:58 59.97265 151.46807 16007 ft 395 kts 34°
2026-05-04 10:58 59.99594 151.49777 16696 ft 400 kts 35°
2026-05-04 10:59 60.01949 151.52809 17402 ft 405 kts 36°
2026-05-04 10:59 60.04327 151.55892 18136 ft 410 kts 36°
2026-05-04 10:59 60.06739 151.59032 18766 ft 415 kts 36°
2026-05-04 10:59 60.09169 151.62207 19457 ft 419 kts 36°
2026-05-04 11:00 60.11620 151.65418 20151 ft 423 kts 36°
2026-05-04 11:01 60.28046 151.91539 24633 ft 441 kts 59°
2026-05-04 11:02 60.29703 151.96765 25232 ft 444 kts 61°
2026-05-04 11:02 60.31300 152.02122 25797 ft 446 kts 62°
2026-05-04 11:05 60.54613 152.81629 32216 ft 492 kts 62°
2026-05-04 11:06 60.56355 152.87640 32526 ft 495 kts 62°
2026-05-04 11:06 60.58099 152.93669 32971 ft 494 kts 62°
2026-05-04 11:06 60.59836 152.99691 33451 ft 493 kts 62°
2026-05-04 11:06 60.61568 153.05711 33897 ft 493 kts 62°
2026-05-04 11:08 60.74039 153.47904 36005 ft 500 kts 61°
2026-05-04 11:10 60.86592 153.90902 37930 ft 505 kts 61°
2026-05-04 11:12 60.99118 154.34646 39443 ft 508 kts 61°
2026-05-04 11:12 61.00874 154.40848 39617 ft 509 kts 61°
2026-05-04 11:12 61.02654 154.47148 39814 ft 509 kts 61°
2026-05-04 11:12 61.04432 154.53460 40015 ft 509 kts 61°
2026-05-04 11:13 61.06210 154.59790 40202 ft 509 kts 61°
2026-05-04 11:13 61.07980 154.66109 40365 ft 510 kts 61°
2026-05-04 11:13 61.09752 154.72456 40543 ft 510 kts 61°
2026-05-04 11:13 61.11522 154.78809 40730 ft 510 kts 61°
2026-05-04 11:14 61.13288 154.85170 40852 ft 511 kts 61°
2026-05-04 11:14 61.15056 154.91552 40879 ft 511 kts 61°
2026-05-04 11:16 61.29092 155.42876 40904 ft 511 kts 62°
2026-05-04 11:16 61.32569 155.55776 40904 ft 511 kts 62°
2026-05-04 11:17 61.36035 155.68705 40919 ft 511 kts 62°
2026-05-04 11:19 61.44638 156.16816 40924 ft 508 kts 79°
2026-05-04 11:19 61.45386 156.24039 40928 ft 508 kts 79°
2026-05-04 11:19 61.46869 156.38460 40930 ft 508 kts 79°
2026-05-04 11:20 61.48360 156.52916 40930 ft 508 kts 79°
2026-05-04 11:20 61.49844 156.67355 40927 ft 508 kts 79°
2026-05-04 11:22 61.55637 157.25359 40925 ft 508 kts 80°
2026-05-04 11:23 61.57046 157.39888 40931 ft 509 kts 80°
2026-05-04 11:25 61.61852 157.90808 40930 ft 509 kts 81°
2026-05-04 11:25 61.63193 158.05422 40929 ft 509 kts 81°
2026-05-04 11:27 61.68826 158.68889 40924 ft 510 kts 81°
2026-05-04 11:28 61.70085 158.83582 40935 ft 510 kts 81°
2026-05-04 11:28 61.71330 158.98296 40925 ft 510 kts 81°
2026-05-04 11:29 61.72558 159.13019 40925 ft 510 kts 81°
2026-05-04 11:29 61.73772 159.27767 40932 ft 510 kts 81°
2026-05-04 11:33 61.81821 160.31303 40936 ft 511 kts 82°
2026-05-04 11:33 61.82909 160.46157 40940 ft 511 kts 82°
2026-05-04 11:34 61.84782 160.60644 40943 ft 512 kts 69°
2026-05-04 11:34 61.87524 160.74580 40941 ft 513 kts 66°
2026-05-04 11:35 61.90381 160.88431 40947 ft 513 kts 66°
2026-05-04 11:35 61.93230 161.02317 40947 ft 513 kts 67°
2026-05-04 11:36 61.96045 161.16242 40951 ft 513 kts 67°
2026-05-04 11:36 61.98837 161.30201 40950 ft 513 kts 67°
2026-05-04 11:37 62.01618 161.44204 40957 ft 513 kts 67°
2026-05-04 11:37 62.04383 161.58223 40962 ft 514 kts 67°
2026-05-04 11:38 62.07135 161.72269 40966 ft 513 kts 67°
2026-05-04 11:38 62.09872 161.86340 40969 ft 513 kts 67°
2026-05-04 11:39 62.12598 162.00448 40975 ft 514 kts 68°
2026-05-04 11:41 62.22023 162.50020 40990 ft 514 kts 68°
2026-05-04 11:41 62.24668 162.64160 40994 ft 514 kts 68°
2026-05-04 11:42 62.27314 162.78407 41003 ft 514 kts 68°
2026-05-04 11:42 62.29948 162.92692 41008 ft 514 kts 68°
2026-05-04 11:43 62.32567 163.07000 41013 ft 514 kts 68°
2026-05-04 11:43 62.35172 163.21336 41017 ft 514 kts 68°
2026-05-04 11:44 62.37763 163.35703 41021 ft 514 kts 68°
2026-05-04 11:44 62.40337 163.50082 41025 ft 514 kts 68°
2026-05-04 11:45 62.42897 163.64491 41028 ft 514 kts 68°
2026-05-04 11:45 62.45444 163.78937 41031 ft 514 kts 68°
2026-05-04 11:46 62.47974 163.93390 41038 ft 514 kts 69°
2026-05-04 11:46 62.50490 164.07876 41040 ft 514 kts 69°
2026-05-04 11:47 62.52992 164.22393 41042 ft 514 kts 69°
2026-05-04 11:47 62.55476 164.36920 41043 ft 514 kts 69°
2026-05-04 11:48 62.57947 164.51479 41050 ft 514 kts 69°
2026-05-04 11:48 62.60404 164.66072 41053 ft 514 kts 69°
2026-05-04 11:49 62.62845 164.80684 41054 ft 514 kts 69°
2026-05-04 11:49 62.65270 164.95314 41060 ft 515 kts 69°
2026-05-04 11:50 62.67680 165.09969 41067 ft 515 kts 69°
2026-05-04 11:50 62.70075 165.24654 41054 ft 515 kts 70°
2026-05-04 11:51 62.72456 165.39365 41076 ft 515 kts 70°
2026-05-04 11:51 62.74820 165.54093 41070 ft 514 kts 70°
2026-05-04 11:52 62.77168 165.68843 41070 ft 515 kts 70°
2026-05-04 11:52 62.79488 165.83525 41077 ft 515 kts 70°
2026-05-04 11:53 62.81808 165.98334 41078 ft 515 kts 70°
2026-05-04 11:53 62.84110 166.13150 41078 ft 515 kts 70°
2026-05-04 11:55 62.93169 166.72689 41090 ft 515 kts 71°
2026-05-04 11:56 62.95396 166.87638 41092 ft 515 kts 71°
2026-05-04 11:56 62.97605 167.02597 41092 ft 515 kts 71°
2026-05-04 11:57 62.99797 167.17587 41094 ft 515 kts 71°
2026-05-04 11:57 63.01976 167.32613 41092 ft 515 kts 71°
2026-05-04 11:58 63.04139 167.47657 41094 ft 515 kts 71°
2026-05-04 11:58 63.06287 167.62723 41098 ft 515 kts 71°
2026-05-04 11:59 63.08421 167.77836 41096 ft 516 kts 72°
2026-05-04 11:59 63.10540 167.92943 41096 ft 516 kts 72°
2026-05-04 12:00 63.12637 168.08091 41099 ft 516 kts 72°
2026-05-04 12:00 63.14718 168.23275 41101 ft 516 kts 72°
2026-05-04 12:01 63.16785 168.38473 41101 ft 516 kts 72°
2026-05-04 12:02 63.23895 168.91851 41107 ft 516 kts 72°
2026-05-04 12:03 63.25868 169.06987 41108 ft 516 kts 72°
2026-05-04 12:03 63.27849 169.22321 41106 ft 516 kts 73°
2026-05-04 12:04 63.29798 169.37567 41109 ft 516 kts 73°
2026-05-04 12:04 63.31758 169.53037 41108 ft 516 kts 73°
2026-05-04 12:05 63.33688 169.68435 41111 ft 516 kts 73°
2026-05-04 12:05 63.35601 169.83838 41108 ft 516 kts 73°
2026-05-04 12:06 63.37498 169.99274 41108 ft 516 kts 73°
2026-05-04 12:06 63.39365 170.14617 41108 ft 516 kts 73°
2026-05-04 12:07 63.41228 170.30084 41110 ft 516 kts 73°
2026-05-04 12:07 63.43073 170.45571 41106 ft 516 kts 73°
2026-05-04 12:08 63.44903 170.61085 41107 ft 516 kts 74°
2026-05-04 12:08 63.46716 170.76610 41109 ft 516 kts 74°
2026-05-04 12:09 63.48513 170.92171 41113 ft 516 kts 74°
2026-05-04 12:09 63.50291 171.07731 41116 ft 516 kts 74°
2026-05-04 12:10 63.52052 171.23310 41114 ft 516 kts 74°
2026-05-04 12:10 63.53800 171.38945 41117 ft 516 kts 74°
2026-05-04 12:11 63.55529 171.54573 41118 ft 516 kts 75°
2026-05-04 12:11 63.57240 171.70218 41116 ft 516 kts 75°
2026-05-04 12:12 63.58650 171.83241 41126 ft 516 kts 75°
2026-05-04 12:12 63.60612 172.01571 41125 ft 516 kts 75°
2026-05-04 12:14 63.66885 172.61844 41135 ft 516 kts 76°
2026-05-04 12:15 63.68735 172.80177 41135 ft 516 kts 76°
2026-05-04 12:15 63.70308 172.95959 41138 ft 516 kts 76°
2026-05-04 12:16 63.71615 173.09213 41138 ft 516 kts 76°
2026-05-04 12:16 63.73160 173.25050 41137 ft 516 kts 76°
2026-05-04 12:17 63.74685 173.40883 41138 ft 516 kts 76°
2026-05-04 12:17 63.76182 173.56632 41142 ft 516 kts 76°
2026-05-04 12:18 63.77672 173.72496 41138 ft 516 kts 76°
2026-05-04 12:18 63.79145 173.88377 41137 ft 516 kts 77°
2026-05-04 12:19 63.80601 174.04290 41143 ft 516 kts 77°
2026-05-04 12:19 63.82040 174.20212 41139 ft 516 kts 77°
2026-05-04 12:20 63.83461 174.36155 41138 ft 516 kts 77°
2026-05-04 12:20 63.84864 174.52110 41137 ft 516 kts 77°
2026-05-04 12:21 63.86251 174.68088 41139 ft 516 kts 77°
2026-05-04 12:21 63.87620 174.84083 41139 ft 516 kts 77°
2026-05-04 12:22 63.88972 175.00076 41135 ft 516 kts 78°
2026-05-04 12:22 63.90304 175.16092 41136 ft 516 kts 78°
2026-05-04 12:23 63.91617 175.32134 41137 ft 516 kts 78°
2026-05-04 12:23 63.92913 175.48183 41130 ft 516 kts 78°
2026-05-04 12:24 63.94192 175.64242 41132 ft 516 kts 78°
2026-05-04 12:24 63.95454 175.80330 41129 ft 516 kts 78°
2026-05-04 12:25 63.96698 175.96422 41132 ft 516 kts 78°
2026-05-04 12:25 63.97915 176.12418 41128 ft 516 kts 79°
2026-05-04 12:26 63.99131 176.28646 41128 ft 516 kts 79°
2026-05-04 12:26 64.00312 176.44659 41130 ft 516 kts 79°
2026-05-04 12:27 64.01484 176.60812 41125 ft 516 kts 79°
2026-05-04 12:27 64.02638 176.76959 41118 ft 516 kts 79°
2026-05-04 12:28 64.03775 176.93143 41122 ft 516 kts 79°
2026-05-04 12:28 64.04893 177.09336 41116 ft 516 kts 79°
2026-05-04 12:29 64.05994 177.25536 41125 ft 516 kts 80°
2026-05-04 12:29 64.07076 177.41759 41127 ft 516 kts 80°
2026-05-04 12:30 64.08140 177.57984 41122 ft 516 kts 80°
2026-05-04 12:30 64.09187 177.74238 41134 ft 517 kts 80°
2026-05-04 12:31 64.10215 177.90480 41135 ft 516 kts 80°
2026-05-04 12:31 64.11219 178.06649 41141 ft 516 kts 81°
2026-05-04 12:32 64.12700 178.31070 41139 ft 516 kts 81°
2026-05-04 12:33 64.13665 178.47370 41140 ft 516 kts 81°
2026-05-04 12:33 64.14612 178.63675 41144 ft 516 kts 81°
2026-05-04 12:34 64.15539 178.79977 41139 ft 516 kts 81°
2026-05-04 12:34 64.16450 178.96312 41144 ft 516 kts 81°
2026-05-04 12:35 64.17346 179.12640 41147 ft 516 kts 82°
2026-05-04 12:35 64.18216 179.29001 41144 ft 516 kts 82°
2026-05-04 12:36 64.19066 179.45343 41142 ft 516 kts 82°
2026-05-04 12:36 64.19900 179.61716 41144 ft 516 kts 82°
2026-05-04 12:37 64.20717 179.78097 41147 ft 516 kts 82°
2026-05-04 12:37 64.21516 179.94490 41148 ft 516 kts 82°
2026-05-04 12:38 64.22295 -179.89127 41152 ft 516 kts 82°
2026-05-04 12:38 64.23058 -179.72712 41149 ft 516 kts 83°
2026-05-04 12:39 64.23801 -179.56304 41148 ft 516 kts 83°
2026-05-04 12:39 64.24525 -179.39899 41152 ft 516 kts 83°
2026-05-04 12:40 64.25232 -179.23458 41151 ft 516 kts 83°
2026-05-04 12:40 64.25919 -179.07033 41152 ft 516 kts 83°
2026-05-04 12:41 64.26589 -178.90587 41153 ft 516 kts 83°
2026-05-04 12:41 64.27236 -178.74238 41149 ft 516 kts 84°
2026-05-04 12:42 64.27872 -178.57676 41152 ft 516 kts 84°
2026-05-04 12:42 64.28482 -178.41325 41157 ft 516 kts 84°
2026-05-04 12:43 64.29078 -178.24859 41152 ft 516 kts 84°
2026-05-04 12:43 64.29654 -178.08389 41154 ft 516 kts 84°
2026-05-04 12:44 64.30213 -177.91907 41152 ft 516 kts 84°
2026-05-04 12:44 64.30752 -177.75439 41156 ft 516 kts 85°
2026-05-04 12:45 64.31273 -177.58954 41154 ft 516 kts 85°
2026-05-04 12:45 64.31776 -177.42461 41150 ft 516 kts 85°
2026-05-04 12:46 64.32260 -177.25951 41153 ft 516 kts 85°
2026-05-04 12:46 64.32725 -177.09458 41154 ft 516 kts 85°
2026-05-04 12:47 64.33172 -176.92952 41158 ft 516 kts 85°
2026-05-04 12:47 64.33601 -176.76432 41157 ft 516 kts 85°
2026-05-04 12:48 64.34010 -176.59923 41162 ft 516 kts 86°
2026-05-04 12:48 64.34401 -176.43403 41162 ft 516 kts 86°
2026-05-04 12:49 64.34774 -176.26876 41162 ft 516 kts 86°
2026-05-04 12:49 64.35128 -176.10348 41151 ft 515 kts 86°
2026-05-04 12:50 64.35462 -175.93829 41155 ft 515 kts 86°
2026-05-04 12:50 64.35779 -175.77294 41162 ft 515 kts 86°
2026-05-04 12:51 64.36077 -175.60773 41160 ft 515 kts 87°
2026-05-04 12:51 64.36356 -175.44231 41164 ft 515 kts 87°
2026-05-04 12:52 64.36615 -175.27817 41154 ft 515 kts 87°
2026-05-04 12:52 64.36857 -175.11296 41156 ft 515 kts 87°
2026-05-04 12:53 64.37080 -174.94764 41169 ft 515 kts 88°
2026-05-04 12:53 64.37285 -174.78235 41166 ft 515 kts 88°
2026-05-04 12:54 64.37471 -174.61716 41156 ft 515 kts 88°
2026-05-04 12:54 64.37639 -174.45194 41169 ft 514 kts 88°
2026-05-04 12:55 64.37750 -174.28663 41156 ft 514 kts 89°
2026-05-04 12:55 64.37782 -174.12148 41170 ft 514 kts 89°
2026-05-04 12:56 64.37797 -173.95625 41167 ft 514 kts 89°
2026-05-04 12:56 64.37805 -173.79127 41165 ft 514 kts 89°
2026-05-04 12:57 64.37799 -173.62611 41165 ft 514 kts 90°
2026-05-04 12:57 64.37775 -173.46101 41156 ft 514 kts 90°
2026-05-04 12:58 64.37732 -173.29589 41155 ft 514 kts 90°
2026-05-04 12:58 64.37678 -173.13077 41169 ft 514 kts 90°
2026-05-04 12:59 64.37645 -172.96577 41161 ft 514 kts 90°
2026-05-04 12:59 64.37599 -172.80036 41168 ft 514 kts 90°
2026-05-04 13:00 64.37527 -172.63520 41155 ft 514 kts 90°
2026-05-04 13:00 64.37450 -172.49797 41164 ft 514 kts 90°
2026-05-04 13:01 64.37320 -172.30504 41162 ft 514 kts 91°
2026-05-04 13:01 64.37189 -172.14021 41157 ft 513 kts 91°
2026-05-04 13:02 64.37039 -171.97542 41151 ft 513 kts 91°
2026-05-04 13:02 64.36875 -171.81057 41163 ft 513 kts 91°
2026-05-04 13:03 64.37175 -171.67412 41153 ft 513 kts 85°
2026-05-04 13:03 64.37776 -171.51001 41164 ft 513 kts 85°
2026-05-04 13:04 64.38407 -171.34572 41163 ft 513 kts 85°
2026-05-04 13:04 64.39015 -171.18161 41153 ft 512 kts 85°
2026-05-04 13:05 64.39024 -171.01743 41174 ft 512 kts 94°
2026-05-04 13:05 64.38401 -170.85330 41164 ft 512 kts 96°
2026-05-04 13:06 64.37665 -170.68978 41170 ft 512 kts 96°
2026-05-04 13:06 64.36913 -170.52631 41163 ft 512 kts 96°
2026-05-04 13:07 64.36157 -170.36286 41168 ft 512 kts 96°
2026-05-04 13:07 64.35388 -170.19937 41165 ft 512 kts 96°
2026-05-04 13:08 64.34604 -170.03623 41163 ft 512 kts 97°
2026-05-04 13:08 64.33800 -169.87304 41159 ft 512 kts 97°
2026-05-04 13:09 64.32981 -169.71058 41169 ft 512 kts 97°
2026-05-04 13:09 64.32146 -169.54877 41161 ft 511 kts 97°
2026-05-04 13:10 64.31282 -169.38484 41165 ft 511 kts 97°
2026-05-04 13:10 64.30413 -169.22332 41163 ft 511 kts 98°
2026-05-04 13:11 64.29519 -169.06067 41168 ft 511 kts 98°
2026-05-04 13:11 64.28608 -168.89836 41180 ft 511 kts 98°
2026-05-04 13:12 64.27678 -168.73594 41170 ft 512 kts 98°
2026-05-04 13:12 64.26730 -168.57365 41175 ft 512 kts 98°
2026-05-04 13:13 64.25764 -168.41150 41175 ft 512 kts 98°
2026-05-04 13:13 64.24779 -168.24929 41186 ft 512 kts 99°
2026-05-04 13:14 64.23778 -168.08747 41177 ft 512 kts 99°
2026-05-04 13:14 64.22759 -167.92578 41184 ft 511 kts 99°
2026-05-04 13:15 64.21722 -167.76420 41181 ft 511 kts 99°
2026-05-04 13:15 64.20668 -167.60286 41182 ft 511 kts 99°
2026-05-04 13:16 64.19596 -167.44169 41186 ft 511 kts 100°
2026-05-04 13:16 64.18507 -167.28055 41178 ft 511 kts 100°
2026-05-04 13:17 64.17400 -167.11968 41182 ft 510 kts 100°
2026-05-04 13:17 64.16277 -166.95914 41182 ft 510 kts 101°
2026-05-04 13:18 64.15136 -166.79856 41188 ft 510 kts 101°
2026-05-04 13:18 64.13977 -166.63813 41181 ft 510 kts 101°
2026-05-04 13:19 64.12811 -166.47798 41185 ft 510 kts 101°
2026-05-04 13:19 64.11655 -166.31764 41183 ft 510 kts 101°
2026-05-04 13:20 64.10483 -166.15743 41183 ft 510 kts 101°
2026-05-04 13:20 64.09261 -165.99878 41181 ft 510 kts 103°
2026-05-04 13:21 64.07859 -165.83981 41177 ft 510 kts 103°
2026-05-04 13:21 64.06424 -165.68100 41177 ft 510 kts 103°
2026-05-04 13:22 64.04999 -165.52241 41178 ft 510 kts 103°
2026-05-04 13:22 64.03569 -165.36380 41179 ft 510 kts 103°
2026-05-04 13:23 64.02122 -165.20514 41178 ft 510 kts 104°
2026-05-04 13:23 64.00660 -165.04686 41173 ft 510 kts 104°
2026-05-04 13:24 63.99178 -164.88861 41175 ft 510 kts 104°
2026-05-04 13:24 63.97681 -164.73078 41174 ft 510 kts 104°
2026-05-04 13:25 63.95402 -164.49426 41172 ft 510 kts 104°
2026-05-04 13:25 63.93861 -164.33673 41169 ft 510 kts 105°
2026-05-04 13:26 63.92304 -164.17952 41180 ft 510 kts 105°
2026-05-04 13:26 63.90732 -164.02263 41177 ft 509 kts 105°
2026-05-04 13:27 63.89143 -163.86589 41174 ft 509 kts 105°
2026-05-04 13:27 63.87538 -163.70948 41168 ft 509 kts 105°
2026-05-04 13:28 63.85915 -163.55312 41170 ft 509 kts 105°
2026-05-04 13:28 63.84278 -163.39718 41168 ft 509 kts 106°
2026-05-04 13:29 63.82636 -163.24253 41169 ft 508 kts 106°
2026-05-04 13:29 63.80964 -163.08686 41166 ft 508 kts 106°
2026-05-04 13:30 63.79280 -162.93183 41166 ft 508 kts 106°
2026-05-04 13:30 63.77577 -162.77668 41165 ft 508 kts 107°
2026-05-04 13:31 63.75858 -162.62186 41169 ft 508 kts 107°
2026-05-04 13:31 63.74126 -162.46750 41171 ft 507 kts 107°
2026-05-04 13:32 63.72375 -162.31310 41167 ft 507 kts 107°
2026-05-04 13:32 63.70610 -162.15907 41169 ft 507 kts 107°
2026-05-04 13:33 63.68829 -162.00531 41164 ft 507 kts 108°
2026-05-04 13:33 63.67030 -161.85165 41166 ft 507 kts 108°
2026-05-04 13:34 63.65216 -161.69829 41162 ft 507 kts 108°
2026-05-04 13:34 63.63385 -161.54501 41165 ft 507 kts 108°
2026-05-04 13:35 63.60610 -161.31573 41162 ft 507 kts 108°
2026-05-04 13:36 63.58739 -161.16300 41165 ft 507 kts 108°
2026-05-04 13:36 63.56853 -161.01059 41180 ft 507 kts 109°
2026-05-04 13:37 63.54950 -160.85831 41203 ft 507 kts 109°
2026-05-04 13:37 63.53032 -160.70634 41218 ft 507 kts 109°
2026-05-04 13:38 63.51099 -160.55464 41218 ft 506 kts 109°
2026-05-04 13:38 63.49148 -160.40302 41208 ft 506 kts 109°
2026-05-04 13:39 63.47183 -160.25177 41189 ft 506 kts 109°
2026-05-04 13:39 63.45202 -160.10070 41170 ft 506 kts 110°
2026-05-04 13:40 63.43532 -159.97443 41165 ft 506 kts 110°